This is the latest recevied weather packets stored in our database for station/object KF4WSW-13. If no packets are shown the sender has not sent any weather packets the latest 10 day(s).
| Time | Temp. | Humidity | Pressure | Rain* | Wind** | Luminosity | Snow |
|---|---|---|---|---|---|---|---|
| 1777385536 | 23.89° C | 76% | 1018.4 hPa | 0 mm | - | 514 W/m² | - |
| 1777385234 | 23.33° C | 78% | 1018.3 hPa | 0 mm | - | 498 W/m² | - |
| 1777384929 | 23.89° C | 77% | 1018.1 hPa | 0 mm | - | 484 W/m² | - |
| 1777384627 | 23.33° C | 79% | 1018.3 hPa | 0 mm | - | 468 W/m² | - |
| 1777384327 | 22.78° C | 79% | 1018.3 hPa | 0 mm | - | 454 W/m² | - |
| 1777384022 | 22.78° C | 81% | 1018.3 hPa | 0 mm | - | 438 W/m² | - |
| 1777383717 | 22.22° C | 81% | 1018.1 hPa | 0 mm | - | 424 W/m² | - |
| 1777383415 | 22.22° C | 82% | 1018.4 hPa | 0 mm | - | 407 W/m² | - |
| 1777383110 | 22.78° C | 81% | 1018.4 hPa | 0 mm | - | 395 W/m² | - |
| 1777382808 | 22.22° C | 83% | 1018.1 hPa | 0 mm | - | 375 W/m² | - |
| 1777382504 | 21.67° C | 83% | 1018.3 hPa | 0 mm | - | 359 W/m² | - |
| 1777382200 | 22.22° C | 83% | 1018.2 hPa | 0 mm | - | 343 W/m² | - |
| 1777381897 | 21.67° C | 85% | 1018.2 hPa | 0 mm | - | 326 W/m² | - |
| 1777381595 | 21.67° C | 86% | 1018.2 hPa | 0 mm | - | 310 W/m² | - |
| 1777381292 | 21.67° C | 87% | 1018.2 hPa | 0 mm | - | 290 W/m² | - |
| 1777380989 | 21.11° C | 87% | 1018.3 hPa | 0 mm | - | 273 W/m² | - |
| 1777380685 | 20.56° C | 89% | 1018.2 hPa | 0 mm | - | 257 W/m² | - |
| 1777380382 | 20.56° C | 89% | 1018.2 hPa | 0 mm | - | 184 W/m² | - |
| 1777380078 | 20.56° C | 90% | 1018.1 hPa | 0 mm | - | 177 W/m² | - |
| 1777379774 | 20.56° C | 91% | 1018.1 hPa | 0 mm | - | 179 W/m² | - |
| 1777379470 | 20.56° C | 91% | 1017.9 hPa | 0 mm | - | 119 W/m² | - |
| 1777379165 | 20° C | 91% | 1017.9 hPa | 0 mm | - | 139 W/m² | - |
| 1777378861 | 20° C | 92% | 1017.9 hPa | 0 mm | - | 105 W/m² | - |
| 1777378557 | 20° C | 91% | 1018 hPa | 0 mm | - | 121 W/m² | - |
| 1777378253 | 20° C | 91% | 1017.8 hPa | 0 mm | - | 83 W/m² | - |
* Rain latest hour (hover to see other rain measurements)
** Current wind speed in m/s (hover to see current wind gust speed)